EW8320 Weather Reports


time (UTC)temp
F
wind
direction
speed
knots
gust
knots
rain 1hr
in
rain 24hr
in
rain mn
in
humidity
%
barometer
mb
20260509153417 57 216 0.0 0.0 0.00 0.00 0.00 98 1025.6
20260509152516 55 216 0.0 0.0 0.00 0.00 0.00 92 1025.5
20260509151516 53 218 0.0 0.0 0.00 0.00 0.00 99 1025.7
20260509150517 54 247 0.0 0.0 0.00 0.00 0.00 100 1025.8
20260509144616 50 271 0.0 0.0 0.00 0.00 0.00 100 1025.8
20260509143617 51 268 0.0 0.0 0.00 0.00 0.00 100 1026.0
20260509141716 46 255 0.0 0.0 0.00 0.00 0.00 100 1025.8
20260509140718 45 258 0.0 0.0 0.00 0.00 0.00 100 1025.6
20260509135816 45 255 0.0 0.0 0.00 0.00 0.00 100 1025.5
20260509134915 47 265 0.0 0.0 0.00 0.00 0.00 100 1025.4
20260509133916 45 264 0.0 0.0 0.00 0.00 0.00 98 1025.3
20260509132917 44 261 0.0 0.0 0.00 0.00 0.00 100 1025.1
20260509131918 41 258 0.0 0.0 0.00 0.00 0.00 100 1024.9
20260509130016 39 260 0.0 0.0 0.00 0.00 0.00 100 1024.8
20260509125016 44 252 0.0 0.0 0.00 0.00 0.00 100 1024.6
20260509124917 44 252 0.0 0.0 0.00 0.00 0.00 100 1024.6
20260509123916 47 228 0.0 0.0 0.00 0.00 0.00 100 1024.5
20260509122917 43 273 0.0 0.0 0.00 0.00 0.00 100 1024.4
20260509121922 40 265 0.0 0.0 0.00 0.00 0.00 100 1024.4
20260509120916 43 206 0.0 0.0 0.00 0.00 0.00 100 1024.2
20260509115917 44 225 0.0 0.0 0.00 0.00 0.00 100 1024.2
20260509114917 37 225 0.0 0.0 0.00 0.00 0.00 100 1024.2
20260509113917 34 202 0.0 0.0 0.00 0.00 0.00 80 1024.2
20260509113816 34 202 0.0 0.0 0.00 0.00 0.00 80 1024.1
20260509112816 35 277 0.0 0.0 0.00 0.00 0.00 79 1024.1
20260509110916 35 267 0.0 0.0 0.00 0.00 0.00 79 1024.3
20260509110817 35 266 0.0 0.0 0.00 0.00 0.00 78 1024.2
20260509105915 35 225 0.0 0.0 0.00 0.00 0.00 77 1024.0
20260509105815 35 225 0.0 0.0 0.00 0.00 0.00 77 1024.1
20260509104817 36 256 0.0 0.0 0.00 0.00 0.00 76 1024.0
20260509103818 37 261 0.0 0.0 0.00 0.00 0.00 76 1024.0
20260509102917 37 264 0.0 0.0 0.00 0.00 0.00 76 1023.9
20260509100916 35 263 0.0 0.0 0.00 0.00 0.00 80 1023.8
20260509095916 35 247 0.0 0.0 0.00 0.00 0.00 79 1023.9
20260509094015 36 215 0.0 0.0 0.00 0.00 0.00 79 1024.1
20260509093017 36 225 0.0 0.0 0.00 0.00 0.00 77 1023.8
20260509092018 37 279 0.0 0.0 0.00 0.00 0.00 76 1023.8
20260509090133 38 198 0.0 0.0 0.00 0.00 0.00 75 1023.9
20260509085216 38 292 0.0 0.0 0.00 0.00 0.00 75 1023.7
20260509084217 39 292 0.0 0.0 0.00 0.00 0.00 72 1023.7
20260509083316 40 186 0.0 0.0 0.00 0.00 0.00 72 1023.8
20260509082317 40 225 0.0 0.0 0.00 0.00 0.00 70 1023.6
20260509081317 42 225 0.0 0.0 0.00 0.00 0.00 64 1023.5
20260509080316 44 292 0.0 0.0 0.00 0.00 0.00 62 1023.7
20260509075315 47 199 0.0 0.0 0.00 0.00 0.00 58 1023.7
20260509074316 48 135 0.0 0.0 0.00 0.00 0.00 55 1023.7
20260509071316 51 347 0.0 0.0 0.00 0.00 0.00 53 1023.5
20260509070318 47 82 0.0 0.0 0.00 0.00 0.00 60 1023.2
20260509064315 46 360 0.0 0.0 0.00 0.00 0.00 60 1023.3
20260509062316 48 45 0.0 0.0 0.00 0.00 0.00 57 1023.2
20260509060316 51 29 0.0 0.0 0.00 0.00 0.00 51 1023.2
20260509055415 52 71 0.0 0.0 0.00 0.00 0.00 48 1023.0
20260509054417 53 96 0.0 0.0 0.00 0.00 0.00 46 1022.7
20260509053514 55 70 0.0 0.0 0.00 0.00 0.00 42 1022.8
20260509052530 54 214 0.0 0.0 0.00 0.00 0.00 45 1022.5
20260509051615 51 292 0.0 0.0 0.00 0.00 0.00 49 1022.4
20260509050616 49 315 0.0 0.0 0.00 0.00 0.00 51 1022.4
20260509045616 49 90 0.0 0.0 0.00 0.00 0.00 51 1022.3
20260509044615 50 360 0.0 0.0 0.00 0.00 0.00 50 1022.3
20260509042716 53 90 0.0 0.0 0.00 0.00 0.00 44 1022.1
20260509041814 55 261 0.0 0.0 0.00 0.00 0.00 40 1022.1
20260509040818 55 60 0.0 0.0 0.00 0.00 0.00 42 1022.0
20260509035914 55 291 0.0 0.0 0.00 0.00 0.00 40 1022.1
20260509035014 56 107 0.0 0.0 0.00 0.00 0.00 39 1021.9
20260509033018 57 190 0.0 0.0 0.00 0.00 0.00 38 1021.7
20260509032014 57 213 0.0 0.0 0.00 0.00 0.00 37 1021.6
20260509031915 58 282 0.0 0.0 0.00 0.00 0.00 37 1021.6
20260509030924 58 227 0.0 0.0 0.00 0.00 0.00 36 1021.5
20260509030015 57 73 0.0 0.0 0.00 0.00 0.00 36 1021.2
20260509025015 58 94 0.0 0.0 0.00 0.00 0.00 35 1021.1
20260509023917 58 308 0.0 0.0 0.00 0.00 0.00 34 1021.1
20260509022915 58 258 0.0 0.0 0.00 0.00 0.00 33 1021.1
20260509022816 59 279 0.0 0.0 0.00 0.00 0.00 33 1021.1
20260509021914 59 121 0.0 0.0 0.00 0.00 0.00 32 1020.9
20260509020014 60 89 0.0 0.0 0.00 0.00 0.00 30 1020.6
20260509015015 61 68 0.0 0.0 0.00 0.00 0.00 29 1020.7
20260509014017 61 91 0.0 0.0 0.00 0.00 0.00 29 1020.4
20260509013114 62 89 0.0 0.0 0.00 0.00 0.00 28 1020.5
20260509011114 64 99 0.0 0.0 0.00 0.00 0.00 28 1020.1
20260509010131 64 82 0.0 0.0 0.00 0.00 0.00 29 1020.0
20260509005115 65 101 0.0 0.0 0.00 0.00 0.00 33 1020.1
20260509004214 65 105 0.0 0.0 0.00 0.00 0.00 34 1020.0
20260509003216 64 81 0.0 0.0 0.00 0.00 0.00 36 1019.8
20260509002314 64 81 0.0 0.0 0.00 0.00 0.00 35 1020.0
20260509001315 64 71 0.0 0.0 0.00 0.00 0.00 36 1020.1
20260509000318 64 73 0.0 0.0 0.00 0.00 0.00 36 1020.2
20260508235315 65 93 0.0 0.0 0.00 0.00 0.00 37 1019.9
20260508232318 65 82 0.0 0.0 0.00 0.00 0.00 33 1020.4
20260508230414 65 104 0.0 0.0 0.00 0.00 0.00 32 1020.4
20260508225415 64 93 0.0 0.0 0.00 0.00 0.00 35 1020.3
20260508224416 63 93 0.0 0.0 0.00 0.00 0.00 34 1020.4
20260508223416 63 93 0.0 0.0 0.00 0.00 0.00 35 1020.4
20260508222415 63 112 0.0 0.0 0.00 0.00 0.00 33 1020.3
20260508221515 63 101 0.0 0.0 0.00 0.00 0.00 34 1020.1
20260508220515 64 93 0.0 0.0 0.00 0.00 0.00 32 1020.0
20260508214615 65 104 0.0 0.0 0.00 0.00 0.00 32 1020.0
20260508213616 65 96 0.0 0.0 0.00 0.00 0.00 31 1019.9
20260508212715 66 109 0.0 0.0 0.00 0.00 0.00 33 1020.0
20260508211716 65 81 0.0 0.0 0.00 0.00 0.00 33 1019.9
20260508210714 66 92 0.0 0.0 0.00 0.00 0.00 33 1019.7
20260508205716 65 73 1.7 14.8 0.00 0.00 0.00 32 1020.0
20260508204716 65 78 0.0 0.0 0.00 0.00 0.00 31 1020.0
20260508203716 65 88 0.0 0.0 0.00 0.00 0.00 30 1020.0
20260508202718 66 84 0.0 0.0 0.00 0.00 0.00 30 1020.0
20260508201815 65 78 0.0 0.0 0.00 0.00 0.00 32 1020.0
20260508200814 61 87 0.0 0.0 0.00 0.00 0.00 33 1020.2
20260508195815 61 114 0.0 0.0 0.00 0.00 0.00 32 1020.4
20260508194815 59 104 0.0 0.0 0.00 0.00 0.00 35 1020.6
20260508193816 59 94 0.0 0.0 0.00 0.00 0.00 37 1020.7
20260508192816 59 111 0.0 0.0 0.00 0.00 0.00 39 1020.7
20260508191716 59 84 0.0 0.0 0.00 0.00 0.00 39 1020.7
20260508190716 58 174 0.0 0.0 0.00 0.00 0.00 40 1020.9
20260508185732 58 93 0.0 0.0 0.00 0.00 0.00 39 1020.7
20260508183815 58 98 0.0 0.0 0.00 0.00 0.00 39 1021.1
20260508182817 57 100 0.0 0.0 0.00 0.00 0.00 38 1021.2
20260508182715 57 95 0.0 0.0 0.00 0.00 0.00 38 1021.1
20260508181714 57 87 0.0 0.0 0.00 0.00 0.00 39 1021.2
20260508180715 56 103 0.0 0.0 0.00 0.00 0.00 41 1021.0
20260508175716 55 60 0.0 0.0 0.00 0.00 0.00 43 1021.2
20260508173715 55 80 0.0 0.0 0.00 0.00 0.00 41 1021.1
20260508172714 54 38 0.0 0.0 0.00 0.00 0.00 41 1021.3
20260508165714 53 90 0.0 0.0 0.00 0.00 0.00 45 1020.9
20260508164715 54 73 0.0 0.0 0.00 0.00 0.00 48 1020.9
20260508163732 53 100 0.0 0.0 0.00 0.00 0.00 47 1021.0
20260508162814 53 112 0.0 0.0 0.00 0.00 0.00 46 1021.0
20260508161815 52 117 0.0 0.0 0.00 0.00 0.00 46 1020.8
20260508160815 51 112 0.0 0.0 0.00 0.00 0.00 48 1020.9
20260508155814 50 180 0.0 0.0 0.00 0.00 0.00 49 1021.0
20260508154816 58 197 0.0 0.0 0.00 0.00 0.00 100 1020.9